Regional Weather Roundup
Issued by NWS

Home | Current Version | Previous Version | Graphics & Text | Print | Product List | Glossary On
Versions: 1 2 3 4 5 6 7 8 9 10 11 12 13 14 15 16 17 18 19 20 21 22 23 24 25 26 27 28 29 30 31 32 33 34 35 36 37 38 39 40 41 42 43 44 45 46 47 48 49 50
000
ASUS43 KDTX 190110
RWRMI
MICHIGAN HOURLY REGIONAL WEATHER ROUNDUP
NATIONAL WEATHER SERVICE DETROIT/PONTIAC MI
900 PM EDT FRI APR 18 2014

NOTE: "FAIR" INDICATES FEW OR NO CLOUDS BELOW 12,000 FEET WITH NO
SIGNIFICANT WEATHER AND/OR OBSTRUCTION TO VISIBILITY.

MIZ047>049-052>055-059>063-066>070-074>076-081>083-190200-
SOUTHEAST LOWER MICHIGAN

CITY           SKY/WX    TMP DP  RH WIND       PRES   REMARKS
ADRIAN         CLEAR     57  35  43 N8        30.24R
ALMA           CLEAR     48  28  46 N12       30.31R
ANN ARBOR      CLEAR     57  33  40 N7        30.24R
BAD AXE        PTCLDY    35  29  81 NE9       30.34R
DETROIT CITY   CLOUDY    50  36  58 NE8       30.27R
DETROIT        MOCLDY    53  41  63 NE6       30.26R
FLINT          CLEAR     53  38  56 N13       30.28R
GROSSE ILE     CLEAR     48  41  76 NE5       30.24R
HILLSDALE      CLEAR     54  31  42 NW10      30.26R
HOWELL         CLEAR     51  32  48 NW6       30.25R

CITY           SKY/WX    TMP DP  RH WIND       PRES   REMARKS
JACKSON        CLEAR     50  33  52 NW6       30.27R
LAMBERTVILLE   CLEAR     52  43  71 E3        30.25R
LANSING        CLEAR     52  33  48 NW7       30.29R
LAPEER         NOT AVBL
MASON          CLEAR     51  33  48 W8        30.27R
MONROE         CLEAR     50  43  76 E5        30.24R
MT. CLEMENS    PTCLDY    42  32  69 NE8       30.27R
PONTIAC        PTCLDY    50  39  66 E7        30.26R
PORT HOPE        N/A     36  30  79 N9        30.32R
PORT HURON     CLEAR     36  32  87 N10       30.31R
TRI CITIES     CLEAR     39  34  82 N16       30.33R
YPSILANTI      CLOUDY    55  42  61 SE6       30.25R
$$
MIZ043>046-050>051-056>058-064>065-071>073-077>080-190200-
SOUTHWEST LOWER MICHIGAN

CITY           SKY/WX    TMP DP  RH WIND       PRES   REMARKS
BATTLE CREEK   CLEAR     48  31  51 NW10      30.30R
BENTON HARBOR  CLEAR     35  26  69 N8        30.34S
BIG RAPIDS     CLEAR     41  26  54 N13G18    30.34R
COLDWATER      CLEAR     49  32  51 NW8       30.28R
HOLLAND        CLEAR     40  29  64 NW7       30.34R
GRAND RAPIDS   CLEAR     48  31  51 W12       30.31R
KALAMAZOO      CLEAR     46  30  53 NW9       30.30R
MARSHALL       CLEAR     48  31  52 NW7       30.28R
MUSKEGON       CLEAR     42  26  53 N10       30.36R
$$
MIZ016>042-190200-
NORTHERN LOWER MICHIGAN

CITY           SKY/WX    TMP DP  RH WIND       PRES   REMARKS
ALPENA         MOCLDY    37  25  61 NW9       30.36R
BEAVER ISLAND  CLEAR     32  28  85 NW5       30.42R
BELLAIRE       MOCLDY    36  27  69 N3        30.42R
CADILLAC       CLEAR     34  25  69 N9        30.35S
CHARLEVOIX     CLOUDY    34  29  81 W6        30.44R
FRANKFORT      CLEAR     35  25  68 CALM      30.41R
GAYLORD        CLOUDY    33  24  69 VRB6      30.37R
GRAYLING       CLOUDY    33  24  67 N8        30.38S
HARBOR SPRINGS CLOUDY    37  28  71 CALM      30.40R
HOUGHTON LAKE  CLEAR     35  24  64 N9        30.36R
MANISTEE       CLEAR     36  25  64 N5        30.41R
OSCODA         CLEAR     35  30  83 NW5       30.33R
PELLSTON       CLOUDY    35  27  72 NW9       30.40R
TRAVERSE CITY  PTCLDY    36  27  69 N6        30.41R
$$
MIZ007>008-015-190200-
EASTERN UPPER MICHIGAN

CITY           SKY/WX    TMP DP  RH WIND       PRES   REMARKS
KINROSS        CLOUDY    34  32  93 NW9       30.37R
MACKINAC ISLAN CLOUDY    35  29  79 NW6       30.39R
NEWBERRY       CLEAR     32  27  84 NW5       30.40R
S. S. MARIE    CLOUDY    33  30  88 NW10      30.37R
$$
MIZ004>006-011>014-085-190200-
CENTRAL UPPER MICHIGAN

CITY           SKY/WX    TMP DP  RH WIND       PRES   REMARKS
MANISTIQUE     CLEAR     32  27  83 NW6       30.42R
ESCANABA       CLEAR     37  25  60 NE7       30.42R
MENOMINEE      CLEAR     36  23  60 E6        30.40S
SAWYER-GWINN   CLEAR     30  27  86 NE7       30.40S
$$
MIZ001>003-009>011-084-190200-
WESTERN UPPER MICHIGAN

CITY           SKY/WX    TMP DP  RH WIND       PRES   REMARKS
IRON MOUNTAIN  CLEAR     36  22  56 NE5       30.37S
HOUGHTON       CLEAR     32  22  66 CALM      30.39S
COPPER HARBOR    N/A     30  26  85 CALM      30.41F
IRONWOOD       CLEAR     34  19  55 NE3       30.31F
$$

ABBREVIATIONS USED IN REMARKS
   TC - TEMPERATURE IN CELSIUS
  WCI - WIND CHILL INDEX
   HX - HEAT INDEX
  VSB - VISIBILITY




USA.gov is the U.S. government's official web portal to all federal, state and local government web resources and services.